CSC5425 ZUUU-ZUKD

Flight info

Callsign CSC5425
Flight time N/A
Altitude FL276
Route ZUUU MUMGG2 MUMGO B213 KAMAX ZUKD
Aircraft A320/M-S/N

Departure

Time 2026-04-30 04:13
Airport Chengdu Shuangliu International Airport (ZUUU)

Arrival

Time N/A
Airport Kangding Airport (ZUKD)
Time Latitude Longitude Altitude Speed Heading
2026-04-30 04:02 30.58920 103.95594 1647 ft 0 kts 112°
2026-04-30 04:07 30.58922 103.95588 1647 ft 3 kts 112°
2026-04-30 04:07 30.58931 103.95563 1647 ft 3 kts 112°
2026-04-30 04:07 30.58939 103.95539 1647 ft 3 kts 97°
2026-04-30 04:08 30.58922 103.95511 1647 ft 3 kts 22°
2026-04-30 04:08 30.58913 103.95507 1647 ft 1 kts 22°
2026-04-30 04:10 30.58922 103.95511 1647 ft 3 kts 22°
2026-04-30 04:10 30.58937 103.95518 1647 ft 2 kts 22°
2026-04-30 04:10 30.58962 103.95530 1647 ft 8 kts 22°
2026-04-30 04:11 30.59037 103.95549 1647 ft 12 kts 340°
2026-04-30 04:11 30.59098 103.95507 1647 ft 11 kts
2026-04-30 04:11 30.59190 103.95544 1647 ft 15 kts 21°
2026-04-30 04:11 30.59288 103.95552 1647 ft 15 kts 316°
2026-04-30 04:12 30.59329 103.95437 1660 ft 16 kts 273°
2026-04-30 04:12 30.59266 103.95357 1648 ft 0 kts 199°
2026-04-30 04:12 30.59264 103.95356 1648 ft 3 kts 199°
2026-04-30 04:12 30.59050 103.95257 1649 ft 73 kts 202°
2026-04-30 04:13 30.58353 103.94935 1647 ft 140 kts 201°
2026-04-30 04:13 30.57302 103.94447 1815 ft 176 kts 201°
2026-04-30 04:13 30.56153 103.93922 2620 ft 178 kts 200°
2026-04-30 04:13 30.54979 103.93396 3243 ft 189 kts 199°
2026-04-30 04:14 30.53681 103.92821 3603 ft 213 kts 199°
2026-04-30 04:14 30.52217 103.92172 4079 ft 238 kts 199°
2026-04-30 04:14 30.50596 103.91451 4611 ft 262 kts 200°
2026-04-30 04:14 30.48921 103.90530 5431 ft 273 kts 217°
2026-04-30 04:15 30.47807 103.88764 6394 ft 278 kts 252°
2026-04-30 04:15 30.47714 103.86550 7354 ft 281 kts 285°
2026-04-30 04:15 30.48674 103.84595 8323 ft 285 kts 313°
2026-04-30 04:15 30.50198 103.83121 9310 ft 288 kts 324°
2026-04-30 04:16 30.51862 103.81806 10231 ft 294 kts 325°
2026-04-30 04:16 30.53618 103.80430 10616 ft 317 kts 325°
2026-04-30 04:16 30.55498 103.78927 10985 ft 338 kts 322°
2026-04-30 04:16 30.57326 103.77161 11645 ft 347 kts 316°
2026-04-30 04:17 30.59079 103.75207 12409 ft 353 kts 313°
2026-04-30 04:17 30.60803 103.73158 13157 ft 358 kts 312°
2026-04-30 04:17 30.62530 103.71051 13866 ft 363 kts 309°
2026-04-30 04:17 30.64009 103.68671 14485 ft 366 kts 298°
2026-04-30 04:18 30.65087 103.65997 15149 ft 367 kts 288°
2026-04-30 04:18 30.65825 103.63155 15847 ft 370 kts 285°
2026-04-30 04:18 30.66534 103.60279 16525 ft 372 kts 285°
2026-04-30 04:18 30.67244 103.57381 17195 ft 375 kts 285°
2026-04-30 04:19 30.67955 103.54455 17856 ft 379 kts 285°
2026-04-30 04:19 30.68666 103.51507 18493 ft 382 kts 285°
2026-04-30 04:19 30.69384 103.48535 19065 ft 384 kts 285°
2026-04-30 04:19 30.70106 103.45549 19667 ft 385 kts 285°
2026-04-30 04:20 30.70829 103.42556 20252 ft 386 kts 285°
2026-04-30 04:20 30.71553 103.39549 20816 ft 388 kts 285°
2026-04-30 04:20 30.72277 103.36533 21382 ft 390 kts 285°
2026-04-30 04:20 30.73007 103.33500 21946 ft 391 kts 284°
2026-04-30 04:21 30.73741 103.30453 22473 ft 393 kts 285°
2026-04-30 04:21 30.74479 103.27391 23002 ft 395 kts 284°
2026-04-30 04:21 30.75220 103.24314 23519 ft 397 kts 284°
2026-04-30 04:21 30.75962 103.21218 23981 ft 399 kts 284°
2026-04-30 04:22 30.76702 103.18107 24411 ft 401 kts 284°
2026-04-30 04:22 30.77444 103.14984 24833 ft 403 kts 284°
2026-04-30 04:22 30.78192 103.11848 25244 ft 405 kts 284°
2026-04-30 04:22 30.78944 103.08690 25640 ft 407 kts 284°
2026-04-30 04:23 30.79702 103.05513 26014 ft 410 kts 284°
2026-04-30 04:23 30.80348 103.02290 26408 ft 410 kts 277°
2026-04-30 04:23 30.80567 102.98990 26809 ft 411 kts 269°
2026-04-30 04:23 30.80505 102.95667 27239 ft 413 kts 268°
2026-04-30 04:24 30.80442 102.92327 27607 ft 415 kts 268°
2026-04-30 04:24 30.80385 102.88991 27671 ft 410 kts 268°
2026-04-30 04:24 30.80329 102.85706 27688 ft 405 kts 268°
2026-04-30 04:24 30.80273 102.82445 27688 ft 403 kts 269°
2026-04-30 04:25 30.80217 102.79198 27685 ft 402 kts 269°
2026-04-30 04:25 30.80162 102.75952 27656 ft 402 kts 269°
2026-04-30 04:25 30.80104 102.72702 27661 ft 403 kts 268°
2026-04-30 04:25 30.80042 102.69448 27658 ft 404 kts 268°
2026-04-30 04:26 30.79974 102.66191 27660 ft 404 kts 269°
2026-04-30 04:26 30.79907 102.62932 27660 ft 404 kts 268°
2026-04-30 04:26 30.79842 102.59674 27626 ft 403 kts 268°
2026-04-30 04:26 30.79777 102.56423 27624 ft 403 kts 268°
2026-04-30 04:27 30.79713 102.53174 27640 ft 403 kts 268°
2026-04-30 04:27 30.79648 102.49919 27642 ft 403 kts 268°
2026-04-30 04:27 30.79582 102.46667 27606 ft 403 kts 268°
2026-04-30 04:27 30.79516 102.43416 27607 ft 403 kts 268°
2026-04-30 04:28 30.79389 102.37063 27605 ft 404 kts 268°
2026-04-30 04:28 30.79247 102.30531 27569 ft 405 kts 268°
2026-04-30 04:28 30.79094 102.23983 27569 ft 406 kts 268°
2026-04-30 04:28 30.78936 102.17435 27556 ft 406 kts 268°
2026-04-30 04:29 30.78780 102.10882 27555 ft 406 kts 268°
2026-04-30 04:29 30.78626 102.04327 27558 ft 406 kts 268°
2026-04-30 04:29 30.78463 101.97778 27541 ft 407 kts 268°
2026-04-30 04:29 30.78285 101.91210 27547 ft 407 kts 265°
2026-04-30 04:30 30.77299 101.84720 27207 ft 410 kts 258°
2026-04-30 04:30 30.76138 101.78259 26714 ft 408 kts 258°
2026-04-30 04:30 30.74987 101.71826 26239 ft 407 kts 258°
2026-04-30 04:30 30.73837 101.65404 25776 ft 406 kts 257°
2026-04-30 04:31 30.72678 101.58990 25311 ft 406 kts 257°
2026-04-30 04:31 30.71026 101.52766 24844 ft 405 kts 240°
2026-04-30 04:31 30.67371 101.47945 24395 ft 400 kts 217°
2026-04-30 04:31 30.62339 101.45348 23933 ft 401 kts 193°
2026-04-30 04:32 30.56803 101.45507 22720 ft 403 kts 167°
2026-04-30 04:32 30.52399 101.47909 21413 ft 408 kts 150°
2026-04-30 04:32 30.50042 101.49590 21282 ft 386 kts 152°
2026-04-30 04:32 30.47818 101.51123 21156 ft 360 kts 152°
2026-04-30 04:33 30.45729 101.52536 20960 ft 339 kts 153°
2026-04-30 04:33 30.43724 101.53881 20473 ft 330 kts 153°
2026-04-30 04:33 30.41761 101.55198 19894 ft 325 kts 153°
2026-04-30 04:33 30.39820 101.56502 19307 ft 322 kts 153°
2026-04-30 04:34 30.37903 101.57797 18848 ft 315 kts 153°
2026-04-30 04:34 30.36042 101.59062 18457 ft 307 kts 153°
2026-04-30 04:34 30.34213 101.60307 17925 ft 304 kts 153°
2026-04-30 04:34 30.32401 101.61539 17372 ft 301 kts 153°
2026-04-30 04:35 30.30607 101.62758 16839 ft 298 kts 153°
2026-04-30 04:35 30.28874 101.63935 16299 ft 283 kts 153°
2026-04-30 04:35 30.27190 101.65076 15951 ft 281 kts 153°
2026-04-30 04:35 30.25539 101.66197 15610 ft 267 kts 152°
2026-04-30 04:36 30.24023 101.67235 15410 ft 240 kts 152°
2026-04-30 04:36 30.22639 101.68181 15007 ft 228 kts 153°
2026-04-30 04:36 30.21308 101.69164 14748 ft 220 kts 149°
2026-04-30 04:36 30.20068 101.70084 14617 ft 207 kts 152°
2026-04-30 04:37 30.18794 101.70817 14470 ft 199 kts 156°
2026-04-30 04:37 30.17635 101.71551 14297 ft 183 kts 150°
2026-04-30 04:37 30.16590 101.72322 14084 ft 175 kts 153°
2026-04-30 04:37 30.15560 101.72994 13895 ft 166 kts 149°
2026-04-30 04:38 30.14597 101.73589 13962 ft 164 kts 153°
2026-04-30 04:38 30.13545 101.74262 14197 ft 181 kts 154°
2026-04-30 04:38 30.12478 101.74996 14547 ft 176 kts 152°
2026-04-30 04:38 30.11442 101.75727 14947 ft 174 kts 152°
2026-04-30 04:39 30.10371 101.76355 15318 ft 173 kts 162°
2026-04-30 04:39 30.09212 101.76666 15660 ft 172 kts 177°
2026-04-30 04:39 30.08031 101.76637 16029 ft 169 kts 191°
2026-04-30 04:39 30.06909 101.76291 16431 ft 167 kts 204°
2026-04-30 04:40 30.05897 101.75664 16803 ft 165 kts 216°
2026-04-30 04:40 30.04899 101.75011 17135 ft 167 kts 205°
2026-04-30 04:40 30.03783 101.74584 17539 ft 171 kts 195°
2026-04-30 04:40 30.03333 101.74484 17724 ft 171 kts 191°